Total_Precipitation_Accumulation
0.10 0.27 0.52 0.87 1.59 1.71 1.17 0.71 0.57 0.45 0.43 0.39 0.39 0.39 0.50 0.73 1.11 1.63 1.06 0.65 0.65 0.83 1.04 1.38 1.64 1.46 1.38 1.28 1.28 1.19 1.14 1.10 1.05 1.09 1.13 1.09 1.03 0.91 0.80 0.74 0.75 0.78 0.76 0.69 0.77 0.81 0.76 0.84 0.96
0.21 0.41 0.64 1.10 1.60 1.25 0.90 0.66 0.55 0.38 0.36 0.39 0.52 0.53 0.44 0.55 0.57 0.66 0.77 0.73 0.59 0.71 0.93 1.04 1.38 1.35 1.30 1.22 1.20 1.14 1.03 0.92 0.93 0.93 0.94 0.91 0.91 0.84 0.71 0.70 0.71 0.73 0.70 0.71 0.80 0.82 0.82 0.82 0.87
0.32 0.50 0.76 1.15 1.07 0.69 0.58 0.48 0.38 0.36 0.41 0.50 0.59 0.62 0.62 0.65 0.56 0.66 0.68 0.62 0.61 0.67 0.82 1.07 1.26 1.18 1.15 1.08 1.05 1.05 0.99 0.90 0.85 0.82 0.86 0.82 0.79 0.77 0.69 0.68 0.69 0.72 0.72 0.72 0.78 0.87 0.89 0.87 0.87
0.38 0.57 0.69 0.79 0.58 0.32 0.25 0.27 0.29 0.39 0.58 0.79 0.81 0.79 0.75 0.61 0.54 0.58 0.64 0.60 0.56 0.54 0.62 0.91 1.12 1.05 1.09 1.02 0.94 0.93 0.92 0.90 0.83 0.81 0.82 0.84 0.84 0.84 0.74 0.66 0.68 0.76 0.79 0.78 0.83 0.96 0.96 0.88 0.88
0.32 0.54 0.76 0.64 0.35 0.26 0.20 0.20 0.31 0.45 0.64 0.80 0.85 0.94 1.00 0.78 0.57 0.57 0.57 0.61 0.54 0.48 0.53 0.75 1.03 0.98 0.98 0.94 0.89 0.84 0.84 0.87 0.82 0.80 0.77 0.81 0.87 0.83 0.76 0.74 0.76 0.75 0.78 0.80 0.86 0.95 0.95 0.95 0.99
0.40 0.56 0.58 0.44 0.25 0.19 0.21 0.25 0.32 0.44 0.62 0.78 1.06 1.19 1.21 1.03 0.85 0.73 0.61 0.75 0.66 0.54 0.50 0.67 0.98 1.00 0.96 0.92 0.85 0.83 0.79 0.79 0.78 0.77 0.76 0.77 0.82 0.82 0.81 0.83 0.86 0.78 0.81 0.87 0.88 0.89 0.87 0.94 1.07
0.34 0.40 0.35 0.27 0.21 0.18 0.20 0.24 0.32 0.48 0.63 0.87 1.16 1.33 1.26 1.18 1.00 0.87 0.81 0.90 0.98 0.84 0.74 0.72 0.85 0.93 0.92 0.98 0.95 0.86 0.82 0.80 0.79 0.81 0.80 0.77 0.77 0.78 0.79 0.90 0.92 0.85 0.87 0.90 0.93 0.91 0.94 1.01 1.11
0.19 0.24 0.22 0.16 0.16 0.15 0.18 0.22 0.35 0.57 0.74 0.95 1.15 1.30 1.42 1.15 0.97 1.06 1.27 1.47 1.58 1.46 1.28 1.04 0.92 1.02 0.90 0.93 0.99 0.96 0.80 0.78 0.82 0.87 0.84 0.85 0.93 0.95 1.02 0.98 0.95 0.98 1.06 1.09 1.14 1.10 1.07 1.19 1.28
0.13 0.20 0.15 0.08 0.09 0.15 0.17 0.21 0.31 0.41 0.61 0.85 1.03 1.09 1.02 0.99 1.15 1.44 1.84 1.93 1.76 1.79 1.64 1.51 1.35 1.11 1.06 1.02 0.94 1.07 0.98 0.94 1.07 1.24 1.20 1.26 1.57 1.52 1.59 1.27 1.21 1.32 1.50 1.55 1.61 1.59 1.51 1.47 1.42
0.10 0.13 0.08 0.03 0.03 0.06 0.12 0.19 0.29 0.44 0.86 1.44 1.42 1.09 0.88 1.08 1.34 1.58 1.91 2.15 1.74 1.74 1.58 1.64 1.67 1.35 1.18 1.13 1.37 1.71 1.50 1.52 1.60 1.83 1.72 2.00 2.11 1.98 1.46 1.52 1.72 1.84 2.18 2.30 2.36 2.40 2.15 1.84 1.72
0.08 0.07 0.05 0.02 0.02 0.02 0.05 0.13 0.23 0.49 0.96 1.64 1.80 1.35 1.17 1.29 1.66 1.69 1.93 2.15 2.08 1.91 1.79 1.60 1.87 1.64 1.55 1.70 1.78 1.93 2.01 1.98 1.98 2.08 2.10 2.34 2.14 1.83 1.74 2.09 2.45 2.62 2.77 2.95 3.01 2.91 2.43 2.36 2.55
0.06 0.05 0.03 0.02 0.02 0.02 0.10 0.18 0.29 0.38 0.80 1.15 1.12 1.01 1.18 1.39 1.74 1.97 2.03 2.26 2.31 2.18 2.07 1.97 2.02 2.01 2.00 2.04 1.97 1.84 1.66 1.67 1.83 2.02 2.04 2.24 2.34 2.34 2.33 2.51 2.63 2.84 3.21 3.59 3.52 3.45 3.18 3.17 2.98
0.04 0.06 0.06 0.04 0.04 0.05 0.11 0.15 0.28 0.44 0.55 0.67 0.65 0.84 1.27 1.55 1.94 2.28 2.65 2.86 2.92 2.86 2.72 2.71 2.79 2.61 2.41 2.36 2.02 1.64 1.56 1.47 1.52 1.67 1.82 1.85 2.18 2.45 2.49 2.36 2.40 2.37 2.61 3.03 3.57 3.51 3.69 3.65 3.28
0.05 0.05 0.06 0.05 0.05 0.06 0.11 0.15 0.32 0.54 0.53 0.63 0.80 1.03 1.42 1.87 2.25 2.50 3.25 3.65 3.90 3.83 3.66 3.46 3.51 3.07 2.73 2.51 2.14 1.85 1.60 1.63 1.55 1.47 1.50 1.73 1.98 2.26 2.24 2.20 2.40 2.46 2.40 2.56 3.00 3.19 3.56 3.54 3.18
0.10 0.12 0.11 0.09 0.07 0.07 0.12 0.30 0.47 0.59 0.79 0.82 0.99 1.20 1.53 2.12 2.59 3.05 3.58 4.33 4.76 4.93 4.55 3.96 3.68 3.36 3.09 2.83 2.36 1.97 1.79 1.56 1.62 1.61 1.52 1.58 1.71 1.94 1.95 2.04 2.06 2.15 2.08 2.15 2.37 2.60 2.87 2.83 2.69
0.13 0.22 0.28 0.16 0.10 0.10 0.16 0.55 0.72 0.62 0.93 1.25 1.19 1.45 1.85 2.37 2.85 3.52 4.20 5.04 5.57 5.74 5.15 4.42 3.72 3.73 3.58 3.29 2.64 2.14 1.88 1.76 1.69 1.62 1.50 1.42 1.45 1.43 1.56 1.61 1.60 1.63 1.52 1.64 1.96 2.04 2.28 2.52 2.59
0.13 0.20 0.26 0.25 0.15 0.13 0.22 0.63 0.81 0.62 0.81 1.10 1.31 1.56 1.97 2.34 2.68 3.33 3.98 4.78 5.38 5.90 5.70 5.07 4.86 4.62 3.96 3.24 2.63 2.23 1.95 1.85 1.70 1.61 1.53 1.44 1.35 1.32 1.42 1.53 1.60 1.35 1.35 1.41 1.29 1.67 1.90 2.15 2.27
0.11 0.14 0.21 0.30 0.21 0.21 0.29 0.49 0.77 0.81 1.00 1.23 1.34 1.48 1.75 1.94 2.27 2.79 3.30 3.75 4.35 4.84 4.74 4.69 4.79 4.33 3.72 3.08 2.60 2.32 2.06 1.78 1.61 1.57 1.56 1.46 1.42 1.42 1.57 1.43 1.41 1.27 1.45 1.60 1.66 1.92 1.85 1.78 1.87
0.08 0.11 0.18 0.24 0.21 0.27 0.40 0.52 0.75 0.91 1.14 1.33 1.32 1.28 1.34 1.55 1.86 2.17 2.55 2.90 3.12 3.28 3.38 3.69 3.91 3.63 3.16 2.74 2.24 2.05 2.00 1.80 1.59 1.46 1.34 1.42 1.39 1.56 1.73 1.48 1.74 1.54 1.50 1.56 1.58 1.71 1.71 1.55 1.52
0.08 0.10 0.18 0.23 0.19 0.24 0.38 0.66 0.84 0.92 0.95 1.03 1.13 1.08 1.10 1.31 1.41 1.50 1.73 2.07 2.16 2.37 2.68 3.05 3.31 3.15 2.62 2.39 2.19 2.05 1.99 1.84 1.79 1.65 1.56 1.39 1.36 1.45 1.41 1.68 1.56 1.57 1.65 1.66 1.74 1.84 1.84 1.65 1.59
0.08 0.09 0.12 0.16 0.16 0.25 0.40 0.91 1.02 0.90 0.81 0.72 0.83 0.89 0.86 0.95 1.06 1.06 1.16 1.33 1.64 2.13 2.29 2.32 2.57 2.77 2.51 2.39 2.31 2.19 2.10 1.91 1.96 1.87 1.71 1.38 1.25 1.30 1.37 1.41 1.46 1.67 1.50 1.75 1.93 1.86 1.92 1.91 1.74
0.07 0.07 0.07 0.09 0.13 0.37 0.48 0.94 1.05 0.92 0.90 0.72 0.69 0.69 0.59 0.57 0.74 0.89 0.91 0.98 1.18 1.52 1.82 2.05 2.29 2.48 2.40 2.29 2.08 1.91 1.73 1.64 1.63 1.65 1.67 1.53 1.41 1.26 1.27 1.29 1.47 1.65 1.47 1.83 1.53 1.57 1.82 1.97 1.79
0.03 0.04 0.06 0.09 0.16 0.34 0.46 0.80 1.02 0.85 0.99 0.75 0.47 0.36 0.32 0.33 0.44 0.61 0.72 0.81 0.85 1.06 1.46 1.90 2.23 2.47 2.36 2.07 1.90 1.89 1.78 1.73 1.65 1.58 1.77 1.66 1.58 1.38 1.20 1.30 1.44 1.52 1.44 1.56 1.59 1.84 1.77 1.75 1.73
0.02 0.05 0.13 0.22 0.35 0.67 0.65 0.66 0.95 0.73 0.57 0.43 0.32 0.24 0.25 0.27 0.32 0.42 0.47 0.57 0.72 0.86 1.13 1.49 1.80 2.04 2.06 1.92 1.84 1.88 1.88 1.84 1.70 1.51 1.51 1.44 1.46 1.41 1.32 1.39 1.47 1.43 1.38 1.46 1.51 1.64 1.67 1.76 1.85
0.02 0.05 0.20 0.43 0.70 0.88 0.53 0.68 1.04 0.62 0.45 0.33 0.27 0.25 0.23 0.22 0.29 0.41 0.46 0.48 0.56 0.65 0.85 1.13 1.34 1.50 1.70 1.80 1.81 1.78 1.87 1.86 1.67 1.48 1.44 1.46 1.33 1.27 1.29 1.40 1.57 1.51 1.53 1.51 1.63 1.64 1.60 1.68 1.74
0.03 0.04 0.09 0.17 0.30 0.46 0.53 1.15 1.00 0.45 0.30 0.26 0.23 0.23 0.21 0.20 0.24 0.38 0.48 0.48 0.47 0.52 0.70 0.85 1.02 1.23 1.47 1.63 1.69 1.67 1.61 1.50 1.47 1.56 1.46 1.42 1.41 1.35 1.28 1.38 1.42 1.46 1.51 1.51 1.82 1.64 1.54 1.59 1.57
0.03 0.04 0.06 0.07 0.11 0.31 0.64 0.82 0.54 0.28 0.25 0.28 0.26 0.26 0.25 0.28 0.34 0.40 0.51 0.53 0.43 0.45 0.54 0.62 0.81 1.00 1.14 1.35 1.47 1.42 1.45 1.36 1.35 1.40 1.37 1.34 1.45 1.46 1.39 1.31 1.31 1.40 1.51 1.63 1.76 1.65 1.64 1.69 1.51
0.03 0.03 0.04 0.04 0.07 0.22 0.48 0.72 0.74 0.48 0.37 0.33 0.32 0.33 0.32 0.36 0.47 0.50 0.49 0.51 0.45 0.44 0.51 0.60 0.77 0.87 0.94 1.11 1.19 1.12 1.32 1.34 1.44 1.41 1.33 1.27 1.27 1.32 1.37 1.37 1.33 1.41 1.49 1.63 1.75 1.76 1.86 1.90 1.71
0.05 0.04 0.03 0.04 0.05 0.11 0.32 0.51 0.56 0.52 0.48 0.36 0.32 0.37 0.43 0.42 0.53 0.52 0.48 0.51 0.48 0.48 0.53 0.60 0.75 0.85 0.89 1.03 1.08 1.13 1.21 1.25 1.30 1.34 1.36 1.34 1.31 1.34 1.37 1.40 1.43 1.44 1.48 1.63 1.71 1.61 1.81 1.93 1.95
0.07 0.08 0.08 0.07 0.05 0.07 0.14 0.27 0.29 0.35 0.41 0.35 0.35 0.43 0.47 0.36 0.39 0.47 0.50 0.56 0.47 0.49 0.52 0.56 0.66 0.74 0.79 0.95 1.09 1.14 1.25 1.27 1.24 1.27 1.47 1.50 1.47 1.46 1.45 1.48 1.56 1.54 1.56 1.66 1.61 1.48 1.55 1.74 1.94